Starlink 31981

operational
NORAD ID: 60035 Int'l Des: 2024-111 Owner: SPXS Country: US Constellation: starlink
LEOCIRCULAR

Über Starlink 31981

Beschreibung wird geladen...

Live-Position

3D-Globus wird geladen...

Nächste Überflüge

Höhenverlauf

Altitude vs Time

uPlot chart will show altitude changes over time

Zweizeiliger Elementsatz

1 60035U 24111V 25353.30089368 -.00001681 00000-0 -44657-4 0 9996
2 60035 53.1602 89.1605 0000946 82.5121 277.5987 15.30195709 86650
Epoch: 19. Dez. 2025 • Age: 11 hours

Aktueller Status

Höhe 480.5 km
Geschwindigkeit 7.63 km/s
Subsatellitenpunkt 50.26°N, 144.32°E
Startdatum 8. Juni 2024
Alter 1.5 years
Typ internet

Technische Details

Klassifizierung Payload
Masse 730.00 kg
Trockenmasse 700.00 kg
Gesamtmasse 730.00 kg
Länge 0.30 m
Durchmesser 4.10 m
Spannweite 29.00 m
Form Box + pan
Hersteller SPXS
Bus-Typ Starlink V2M
Phasenstatus In Orbit
Besitzer/Staat SPXS/US

Große Konstellationen

Loading constellations...